This is the latest recevied weather packets stored in our database for station/object IT9FBN-3. If no packets are shown the sender has not sent any weather packets the latest 10 day(s).
| Time | Temp. | Humidity | Pressure | Rain* | Wind** | Luminosity | Snow |
|---|---|---|---|---|---|---|---|
| 1778057403 | 20.56° C | 44% | 1015 hPa | 0 mm | - | - | - |
| 1778057103 | 20° C | 44% | 1015 hPa | 0 mm | - | - | - |
| 1778056803 | 20° C | 44% | 1015.1 hPa | 0 mm | - | - | - |
| 1778056503 | 20° C | 44% | 1015 hPa | 0 mm | - | - | - |
| 1778056203 | 20° C | 44% | 1015.3 hPa | 0 mm | - | - | - |
| 1778055903 | 20° C | 43% | 1015.3 hPa | 0 mm | - | - | - |
| 1778055602 | 20° C | 43% | 1015.2 hPa | 0 mm | - | - | - |
| 1778055302 | 19.44° C | 43% | 1015.3 hPa | 0 mm | - | - | - |
| 1778055002 | 19.44° C | 43% | 1015.3 hPa | 0 mm | - | - | - |
| 1778054702 | 19.44° C | 42% | 1015.4 hPa | 0 mm | - | - | - |
| 1778054402 | 20° C | 42% | 1015.4 hPa | 0 mm | - | - | - |
| 1778054102 | 19.44° C | 41% | 1015.6 hPa | 0 mm | - | - | - |
| 1778053802 | 20° C | 41% | 1015.6 hPa | 0 mm | - | - | - |
| 1778053502 | 20° C | 45% | 1015.5 hPa | 0 mm | - | - | - |
| 1778053202 | 20° C | 45% | 1015.6 hPa | 0 mm | - | - | - |
| 1778052302 | 19.44° C | 48% | 1015.8 hPa | 0 mm | - | - | - |
| 1778051702 | 18.89° C | 49% | 1015.7 hPa | 0 mm | - | - | - |
| 1778051402 | 18.89° C | 50% | 1015.8 hPa | 0 mm | - | - | - |
| 1778051102 | 18.89° C | 50% | 1015.8 hPa | 0 mm | - | - | - |
| 1778050802 | 18.33° C | 52% | 1015.9 hPa | 0 mm | - | - | - |
| 1778050502 | 18.33° C | 52% | 1015.9 hPa | 0 mm | - | - | - |
| 1778050202 | 18.33° C | 53% | 1015.8 hPa | 0 mm | - | - | - |
| 1778049902 | 18.33° C | 52% | 1015.7 hPa | 0 mm | - | - | - |
| 1778049602 | 18.33° C | 52% | 1015.7 hPa | 0 mm | - | - | - |
| 1778049302 | 17.78° C | 53% | 1015.8 hPa | 0 mm | - | - | - |
* Rain latest hour (hover to see other rain measurements)
** Current wind speed in m/s (hover to see current wind gust speed)